Weather History for KPOU - September, 2012

Change the Weather History Date:

Thursday, September 6, 2012

  Actual Average Record
Temperature  
Mean Temperature 72 °F 67 °F  
Max Temperature 82 °F 79 °F 94 °F (1983)
Min Temperature 61 °F 55 °F 39 °F (1984)
Degree Days  
Heating Degree Days 0 2  
Month to date heating degree days 0 9  
Since 1 July heating degree days 2 26  
Cooling Degree Days 7 0  
Month to date cooling degree days 49 23  
Year to date cooling degree days 860 627  
Growing Degree Days 20 (Base 50)    
Moisture  
Dew Point 63 °F    
Average Humidity 79    
Maximum Humidity 100    
Minimum Humidity 58    
Precipitation  
Precipitation T in 0.13 in 2.20 in (2008)
Month to date precipitation 0.68 0.80  
Year to date precipitation 22.86 31.58  
Sea Level Pressure  
Sea Level Pressure 29.87 in    
Wind  
Wind Speed 2 mph (SSW)    
Max Wind Speed 9 mph    
Max Gust Speed 10 mph    
Visibility 6 miles    
Events Fog , Rain    
T = Trace of Precipitation, MM = Missing Value Source: NWS Daily Summary

Daily Weather History Graph

Daily Weather History Graph

Search for Another Location

Airport or City:

Trip Planner

Search our weather history database for the weather conditions in past years. The results will help you decide how hot, cold, wet, or windy it might be!

Date:

Astronomy

Sep. 06, 2012 Rise Set
Actual Time 6:27 AM EDT 7:19 PM EDT
Civil Twilight 5:58 AM EDT 7:47 PM EDT
Nautical Twilight 5:25 AM EDT 8:21 PM EDT
Astronomical Twilight 4:50 AM EDT 8:55 PM EDT
Moon 10:22 PM EDT (9/6) 12:29 PM EDT (9/6)
Length of Visible Light 13h 48m
Length of Day
12h 52m
Waning Gibbous, 67% of the Moon is Illuminated
Sep 6
Waning Gibbous
Sep 8
Last Quarter
Sep 15
New
Sep 22
First Quarter
Sep 29
Full

Hourly Weather History & Observations

Time (EDT) Temp. Heat Index Dew Point Humidity Pressure Visibility Wind Dir Wind Speed Gust Speed Precip Events Conditions
12:53 AM 64.9 °F - 63.0 °F 93% 29.83 in 10.0 mi Calm Calm - N/A   Clear
1:51 AM 64.4 °F - 62.6 °F 94% 29.85 in 2.0 mi Calm Calm - N/A   Clear
1:53 AM 64.0 °F - 62.1 °F 93% 29.84 in 2.0 mi Calm Calm - N/A   Clear
2:01 AM 64.4 °F - 62.6 °F 94% 29.84 in 4.0 mi Calm Calm - N/A   Clear
2:25 AM 62.6 °F - 60.8 °F 94% 29.85 in 8.0 mi Calm Calm - N/A   Scattered Clouds
2:53 AM 63.0 °F - 61.0 °F 93% 29.83 in 10.0 mi Calm Calm - N/A   Clear
3:53 AM 63.0 °F - 61.0 °F 93% 29.84 in 10.0 mi Calm Calm - N/A   Clear
4:53 AM 62.1 °F - 60.1 °F 93% 29.85 in 4.0 mi Calm Calm - N/A   Scattered Clouds
4:56 AM 62.6 °F - 60.8 °F 94% 29.86 in 2.0 mi Calm Calm - N/A   Mostly Cloudy
5:07 AM 60.8 °F - 60.8 °F 100% 29.86 in 0.8 mi Calm Calm - N/A   Mostly Cloudy
5:17 AM 62.6 °F - 60.8 °F 94% 29.86 in 0.2 mi Calm Calm - N/A Fog Fog
5:19 AM 62.6 °F - 60.8 °F 94% 29.86 in 0.5 mi Calm Calm - N/A Fog Fog
5:25 AM 60.8 °F - 60.8 °F 100% 29.86 in 2.5 mi Calm Calm - N/A   Overcast
5:32 AM 62.6 °F - 60.8 °F 94% 29.87 in 10.0 mi Calm Calm - N/A   Overcast
5:41 AM 62.6 °F - 60.8 °F 94% 29.87 in 10.0 mi Calm Calm - N/A   Overcast
5:50 AM 62.6 °F - 60.8 °F 94% 29.88 in 1.8 mi Calm Calm - N/A   Overcast
5:53 AM 62.1 °F - 61.0 °F 96% 29.87 in 0.8 mi Calm Calm - N/A   Overcast
6:04 AM 62.6 °F - 60.8 °F 94% 29.88 in 0.2 mi Calm Calm - N/A Fog Fog
6:53 AM 63.0 °F - 62.1 °F 97% 29.88 in 0.2 mi Calm Calm - N/A Fog Fog
7:10 AM 62.6 °F - 62.6 °F 100% 29.89 in 0.5 mi Calm Calm - N/A Fog Fog
7:20 AM 64.4 °F - 62.6 °F 94% 29.89 in 0.2 mi Calm Calm - N/A Fog Fog
7:53 AM 64.0 °F - 63.0 °F 96% 29.88 in 0.8 mi Calm Calm - N/A   Overcast
8:13 AM 64.4 °F - 62.6 °F 94% 29.90 in 2.0 mi Calm Calm - N/A   Overcast
8:24 AM 64.4 °F - 62.6 °F 94% 29.90 in 7.0 mi Calm Calm - N/A   Overcast
8:53 AM 64.9 °F - 63.0 °F 93% 29.89 in 2.5 mi Calm Calm - N/A   Overcast
9:02 AM 64.4 °F - 62.6 °F 94% 29.91 in 8.0 mi Calm Calm - N/A   Overcast
9:53 AM 66.0 °F - 64.0 °F 93% 29.91 in 10.0 mi Calm Calm - 0.00 in Rain Light Rain
10:13 AM 66.2 °F - 64.4 °F 94% 29.91 in 10.0 mi Calm Calm - 0.00 in   Overcast
11:53 AM 73.4 °F - 64.4 °F 73% 29.89 in 10.0 mi Calm Calm - N/A   Clear
12:53 PM 77.0 °F - 66.2 °F 69% 29.89 in 10.0 mi Calm Calm - N/A   Clear
1:53 PM 78.8 °F - 64.4 °F 61% 29.87 in 10.0 mi West 3.5 mph - N/A   Clear
2:53 PM 80.6 °F 82.3 °F 64.4 °F 58% 29.87 in 10.0 mi WSW 5.8 mph - N/A   Clear
3:53 PM 80.6 °F 82.3 °F 64.4 °F 58% 29.85 in 10.0 mi South 3.5 mph - N/A   Clear
4:53 PM 80.6 °F 82.7 °F 66.2 °F 61% 29.84 in 10.0 mi South 3.5 mph - N/A   Clear
5:53 PM 80.6 °F 82.7 °F 66.2 °F 61% 29.84 in 10.0 mi South 6.9 mph - N/A   Clear
6:53 PM 78.8 °F - 66.2 °F 65% 29.84 in 10.0 mi SSE 4.6 mph - N/A   Clear
7:53 PM 73.4 °F - 66.2 °F 78% 29.86 in 10.0 mi SSE 4.6 mph - N/A   Clear